Theta_e
301 302 302 304 303 303 302 302 304 306 309 309 306 307 312 312 306 302 311 313 312 314 318 320 321 324 326 327 330 331 331 330 332 332 334 333 334 335 337 341 342 340 339 337 338 339 340 348 347 347 348 352 348 345 345 348 347 347 351 350 348 348 347 348 350 349 352 351 348 348 350 347 347 347 350 350 352 352 353 353 353 352 351 352 354 357 359
300 301 303 304 303 302 302 304 307 307 308 307 308 309 313 313 311 313 314 314 313 317 320 322 323 327 328 329 332 333 330 330 330 330 331 333 334 335 338 339 340 340 338 338 339 341 347 352 352 351 350 352 349 346 347 348 348 348 353 351 350 349 347 347 351 351 352 353 352 352 357 349 345 345 349 350 351 351 352 352 352 352 351 352 351 354 355
298 301 303 303 302 302 303 304 306 308 309 308 308 309 311 314 312 313 311 311 312 317 322 323 327 329 330 329 328 329 329 331 332 330 329 331 333 334 333 335 337 335 335 339 341 340 341 346 347 346 348 351 355 357 357 358 358 356 354 354 352 351 355 353 349 347 345 345 345 344 347 351 355 351 348 351 350 350 351 351 350 352 351 350 349 350 353
295 300 301 301 303 304 303 303 303 307 307 305 307 306 309 308 308 311 311 307 308 318 324 324 324 325 325 325 326 327 328 330 331 331 332 331 333 333 335 336 336 335 335 337 339 341 343 343 342 343 344 345 347 349 357 358 360 361 357 350 346 345 347 349 349 348 346 345 345 345 346 348 349 353 360 359 357 356 352 349 350 351 350 350 351 352 352
294 299 301 300 301 300 299 298 303 307 308 309 310 311 312 311 312 308 305 306 314 317 321 322 322 323 323 323 324 324 325 329 330 329 331 331 332 334 334 334 334 335 334 337 339 341 342 343 343 344 346 347 348 350 354 358 359 348 346 346 346 346 346 347 345 346 347 346 346 345 346 348 346 347 349 356 357 357 355 353 348 345 346 348 349 350 350
293 299 300 301 297 291 294 305 310 310 307 307 306 306 309 311 313 310 313 313 317 319 320 320 320 321 321 323 325 327 328 329 330 331 332 333 335 335 336 337 335 334 335 339 340 340 339 343 345 345 348 349 349 353 354 351 346 344 346 348 348 347 347 347 346 345 346 346 345 346 347 346 344 344 347 352 353 353 352 347 345 345 346 348 348 346 342
294 297 298 293 289 294 306 309 309 312 312 311 309 309 310 311 313 315 313 314 316 318 319 321 322 323 325 325 325 327 330 331 331 330 331 332 332 332 334 334 336 338 337 336 337 340 342 346 345 345 344 347 349 349 350 348 345 344 344 345 348 346 346 346 346 345 345 345 345 346 347 345 343 343 346 348 350 351 350 348 347 346 347 347 347 345 339
297 294 293 286 292 305 308 309 310 312 313 312 311 307 309 311 311 312 312 313 316 318 319 321 325 324 326 326 327 328 330 333 333 331 331 333 335 333 333 333 334 335 336 337 338 338 342 345 347 347 347 349 347 347 348 346 344 345 346 346 347 345 345 346 345 345 345 344 343 346 347 346 343 342 345 347 350 351 349 346 347 347 347 349 347 342 339
293 294 292 296 304 304 305 305 307 306 303 306 305 300 304 311 312 312 312 314 316 318 320 321 323 325 325 322 323 330 330 332 333 332 333 335 334 335 337 338 338 338 338 337 338 338 339 342 345 347 347 346 346 345 346 347 344 342 342 342 343 344 346 347 347 346 345 344 343 343 346 346 345 346 347 349 353 352 347 346 344 344 344 345 346 340 337
298 293 291 293 292 291 298 308 315 312 311 314 314 308 303 311 313 314 313 313 316 317 319 321 323 325 319 315 318 327 330 332 333 335 336 337 337 337 337 338 338 339 340 342 343 341 340 341 344 344 345 345 344 343 344 344 342 341 341 339 342 344 345 346 346 345 345 344 344 345 346 347 346 347 350 351 348 349 345 343 342 342 340 339 338 337 334
296 294 290 290 290 294 303 306 308 311 312 310 314 306 299 308 313 315 315 314 316 318 319 320 322 318 313 314 318 326 329 330 333 333 334 336 337 337 336 337 337 338 338 340 340 341 340 338 341 343 344 343 342 341 342 342 342 341 342 341 341 340 341 342 345 347 346 344 344 345 346 344 345 348 349 347 347 345 344 343 343 341 340 336 336 335 334
297 295 292 292 297 297 305 306 309 312 313 310 305 292 295 308 314 314 315 314 315 317 320 321 319 316 312 313 319 328 329 329 330 331 333 334 336 336 336 337 338 337 338 336 336 336 337 338 341 341 342 341 340 339 339 339 338 337 338 341 341 342 343 343 344 345 346 346 346 345 344 343 343 343 347 346 345 344 343 343 342 340 337 334 332 331 331
296 297 294 297 299 307 307 308 313 314 316 309 296 289 300 312 314 315 315 315 316 318 320 320 316 320 321 323 326 328 329 327 327 329 329 329 332 335 336 335 338 334 334 334 334 335 336 338 340 341 339 338 337 338 337 335 335 336 337 339 342 342 340 342 344 342 342 342 342 343 342 340 341 342 343 344 344 344 343 342 338 334 332 330 328 327 328
294 295 294 295 299 305 309 310 313 315 311 297 294 305 315 315 314 315 316 316 317 318 320 319 319 323 326 327 327 326 326 326 326 327 327 327 327 331 337 337 333 330 331 331 333 334 336 337 338 338 336 335 335 336 334 334 335 336 336 336 337 339 341 341 340 340 339 339 340 340 340 338 337 337 338 339 339 338 337 334 332 330 328 327 325 325 326
299 298 294 289 286 303 312 312 310 313 303 303 311 315 314 316 314 315 315 317 319 320 319 322 324 325 325 325 325 325 325 324 324 326 327 325 325 325 325 326 328 327 327 328 330 332 334 336 337 337 335 333 333 334 332 333 334 335 336 335 335 335 336 338 339 339 340 339 338 339 338 337 336 335 335 335 334 333 332 331 328 326 325 324 323 322 323
293 293 291 290 300 307 314 311 303 309 311 315 316 314 311 314 314 315 314 317 320 322 322 321 322 324 324 324 325 325 325 325 325 325 326 328 327 326 326 326 326 327 326 327 328 330 332 334 335 334 334 332 332 331 332 334 334 335 334 333 334 334 335 334 335 335 336 336 336 337 337 335 335 333 333 334 334 333 331 329 326 325 325 324 323 323 323
299 297 300 305 311 311 314 313 312 313 315 317 316 314 313 312 313 316 314 316 322 323 323 323 323 322 324 323 325 324 323 324 324 324 324 326 324 323 323 324 326 325 324 324 326 327 329 330 332 334 333 331 332 331 333 337 336 335 333 332 331 332 333 332 331 332 334 334 335 335 335 333 331 332 332 332 330 331 331 329 327 325 324 325 324 324 325
308 309 310 311 310 310 311 313 315 314 315 317 317 316 314 315 316 315 314 317 322 323 323 321 322 322 323 323 323 324 325 324 325 326 325 326 326 327 325 323 323 323 324 325 325 325 326 328 329 331 332 333 331 332 335 336 335 335 333 332 331 330 329 329 328 328 327 327 326 327 328 331 333 333 332 333 332 331 331 330 330 329 329 328 328 327 326
299 294 311 308 308 310 311 311 313 315 316 315 316 315 315 315 316 316 317 318 320 323 322 321 320 321 323 323 323 324 324 324 323 323 323 324 325 323 321 323 323 322 322 322 322 323 323 324 325 328 329 330 332 332 333 334 336 335 334 332 331 329 327 326 325 325 325 324 322 323 323 325 326 324 323 321 321 323 325 330 330 330 330 330 328 327 327
301 302 309 310 311 311 312 311 310 311 313 314 315 317 317 317 317 317 318 318 317 319 321 322 321 321 322 322 321 321 322 322 323 322 323 321 322 322 323 324 323 322 322 321 321 323 323 323 324 325 325 325 326 329 330 331 332 332 335 331 328 327 326 325 325 327 327 329 321 316 314 314 317 321 320 318 316 314 315 318 325 329 329 329 327 326 324
307 310 311 312 311 311 311 312 313 312 313 313 314 316 315 316 315 315 317 319 318 319 320 322 322 320 320 322 321 321 322 322 322 322 321 321 321 320 321 321 321 319 320 321 322 322 322 323 323 323 322 323 324 324 326 328 331 330 331 331 326 323 325 327 327 328 324 321 318 315 312 310 308 307 310 317 316 314 313 311 316 323 323 321 320 319 322
300 301 305 310 301 301 307 311 313 314 314 313 313 314 314 315 315 315 315 316 318 318 319 322 321 319 319 320 321 321 320 321 322 322 322 322 322 321 321 321 320 321 322 320 320 321 321 322 322 322 323 324 325 327 327 328 329 327 330 330 323 323 324 325 327 325 322 320 318 317 313 311 310 309 307 299 303 313 313 312 306 306 310 317 318 317 313
299 308 311 311 310 309 311 312 314 314 314 314 313 312 313 313 314 314 315 315 315 316 318 321 321 320 320 321 320 320 320 321 322 323 323 323 323 322 322 321 321 321 321 322 322 322 322 324 323 322 322 323 323 325 326 327 326 326 325 327 328 325 326 326 326 326 324 322 320 318 315 313 312 311 309 308 298 297 304 307 303 299 299 301 305 309 316
310 312 312 314 311 308 311 313 314 313 315 313 312 313 313 314 314 314 315 316 315 315 317 319 322 322 321 321 320 319 320 321 321 321 321 321 320 321 322 322 322 321 321 322 322 322 322 325 322 320 320 321 321 323 325 326 327 326 325 326 326 325 325 326 327 326 323 324 323 320 318 316 314 312 310 308 308 300 296 299 300 298 298 298 299 301 305
308 313 313 314 313 312 314 314 313 314 315 314 312 313 313 314 314 315 316 316 317 314 315 315 319 321 321 321 321 320 319 320 321 322 322 320 319 319 320 322 322 322 322 322 321 321 321 321 321 322 321 321 321 322 323 325 326 325 324 325 325 326 328 328 328 329 326 324 324 322 321 319 317 315 312 311 307 307 306 297 294 295 296 296 296 297 297
315 315 314 314 313 314 314 311 312 313 313 315 314 314 317 320 317 317 316 317 317 316 316 317 317 318 322 320 320 321 321 321 321 321 318 317 319 319 318 318 319 320 321 321 321 321 321 321 319 318 318 318 320 321 323 323 324 323 324 324 325 324 325 326 324 324 326 326 325 325 325 321 320 318 318 315 311 310 308 308 307 303 298 294 294 295 294
315 315 312 309 310 311 313 311 308 312 312 314 313 313 313 315 318 318 316 317 317 318 317 316 318 319 320 322 322 321 319 321 320 319 317 317 317 316 316 317 319 320 320 320 320 322 323 322 320 318 317 319 319 321 322 323 322 322 323 323 325 330 331 329 323 323 323 324 324 326 326 324 324 324 322 321 319 316 314 313 311 308 308 309 304 302 303
313 313 313 309 307 309 311 313 315 312 310 311 313 312 313 312 314 314 312 313 314 316 317 317 318 317 317 319 320 318 320 319 318 318 318 317 317 318 317 318 318 320 320 321 321 321 321 321 320 319 318 318 318 319 320 320 322 320 320 320 323 324 325 325 323 321 320 319 320 320 322 322 324 323 324 325 324 322 319 322 317 312 311 309 308 306 297
312 313 315 314 314 314 314 314 313 312 311 313 316 315 312 310 310 311 311 311 311 314 312 314 316 318 317 317 319 319 317 317 318 319 318 319 321 319 319 319 317 319 320 321 320 319 319 319 319 318 317 317 318 318 320 320 320 319 318 317 317 318 318 322 323 322 320 320 319 321 325 325 322 321 322 322 322 321 322 321 317 316 311 310 308 309 311
313 313 313 314 315 314 311 309 310 311 311 309 310 312 311 310 309 310 310 310 312 310 311 313 313 314 315 316 317 317 317 318 318 319 319 321 320 321 321 321 319 318 317 317 317 318 318 318 317 314 314 315 317 316 317 321 321 320 319 319 318 317 318 320 321 321 319 319 321 322 322 320 319 321 323 320 321 322 320 322 319 317 311 311 313 309 309
312 313 313 313 313 311 310 311 310 309 309 311 311 310 311 310 309 309 310 310 311 309 311 309 312 313 314 314 315 317 318 320 319 318 319 319 319 321 320 320 317 315 316 316 316 317 316 317 317 314 314 315 315 316 316 316 318 318 318 317 317 319 321 321 323 320 319 319 320 319 319 320 319 318 318 318 318 320 317 317 320 318 316 315 314 314 313
309 312 313 311 311 310 311 309 308 310 309 307 308 308 306 307 307 308 309 310 310 310 308 308 311 312 311 312 312 315 316 318 318 317 318 318 318 319 319 319 318 320 317 317 317 317 316 315 315 314 314 314 314 315 315 315 315 316 316 319 316 317 318 320 318 319 320 321 320 319 322 320 317 319 320 319 317 317 317 316 316 313 311 310 308 308 309
307 306 307 308 309 308 308 308 307 308 307 307 309 309 308 308 308 309 309 310 310 310 308 308 311 310 309 310 310 312 313 314 317 315 315 316 318 319 318 318 318 319 318 317 317 316 316 315 315 315 314 315 314 315 314 314 314 313 313 314 315 316 320 319 319 318 320 318 317 319 318 318 318 316 316 317 316 319 319 316 316 313 312 308 305 304 304
308 307 308 309 307 305 307 308 309 310 311 307 307 308 309 310 310 310 310 309 308 308 309 310 311 311 311 310 310 309 310 309 310 313 314 314 316 317 319 320 318 318 318 319 318 316 315 316 316 315 315 315 314 314 314 313 314 314 313 313 313 315 315 314 316 318 317 316 316 316 316 319 317 316 317 317 317 317 317 318 317 313 309 307 305 306 301
315 313 313 312 312 311 310 310 310 308 306 306 307 309 309 308 308 308 311 309 308 309 311 311 310 311 310 309 310 309 308 309 309 310 314 315 316 316 316 317 317 316 317 317 316 316 317 317 317 316 315 315 314 313 313 313 312 312 313 314 316 314 314 316 315 316 315 314 314 312 313 315 316 321 320 315 313 314 314 315 316 313 309 307 308 307 304
314 313 313 312 311 312 311 309 308 308 307 307 308 307 307 308 308 308 308 308 309 309 309 309 310 311 310 309 309 309 309 309 309 308 308 312 316 317 316 315 314 314 313 314 317 318 319 317 322 320 315 314 313 313 312 312 311 311 314 313 315 313 314 315 315 314 315 313 314 314 315 318 319 316 315 313 313 313 312 312 312 313 310 309 308 306 305
314 314 312 311 309 311 310 309 308 308 308 308 307 308 308 308 308 309 310 310 311 311 311 310 309 308 308 308 309 309 309 309 309 309 309 311 315 315 314 312 312 312 314 313 315 318 318 317 322 322 317 315 314 314 315 317 316 314 313 311 311 310 310 309 311 312 312 313 314 314 315 315 312 313 315 310 311 311 312 311 315 312 311 312 313 310 308
314 312 310 310 311 310 309 310 311 311 310 307 308 309 308 309 310 309 308 308 307 309 311 309 309 309 309 309 308 307 308 309 309 309 309 310 314 313 311 310 311 312 312 312 315 316 317 319 321 319 315 313 312 312 314 317 316 312 311 310 310 311 311 310 311 312 312 311 315 313 312 310 309 308 308 308 310 312 314 313 312 312 313 312 310 310 311
313 313 312 310 309 309 310 310 309 306 306 306 308 308 311 310 310 308 307 308 310 312 310 309 309 308 307 307 307 307 308 308 309 308 309 309 310 310 312 312 313 313 314 316 314 317 319 319 318 316 314 313 313 312 315 316 316 310 309 310 309 310 310 310 310 310 310 311 311 311 310 308 308 307 306 307 308 313 315 313 311 313 309 307 306 305 307
310 310 310 309 308 309 309 308 308 309 311 311 309 308 309 309 310 309 307 306 307 312 308 307 306 305 306 306 305 305 306 307 308 308 308 309 309 308 308 312 316 316 317 320 317 316 318 320 318 315 314 312 312 310 313 314 314 311 309 306 306 308 308 309 309 308 310 308 309 314 308 309 309 309 308 307 307 309 307 306 306 308 308 308 306 306 307
311 311 311 308 310 309 307 306 306 308 309 311 309 309 310 310 309 307 307 308 308 308 307 307 306 306 305 305 305 305 306 307 308 307 308 307 305 305 305 305 310 316 318 318 315 316 317 318 316 314 313 312 311 313 311 313 310 308 307 307 308 308 307 308 309 308 308 308 309 306 307 307 308 309 309 308 308 307 307 306 304 305 306 305 303 303 303
312 312 312 310 308 308 308 307 309 309 309 308 308 309 310 310 309 307 308 308 307 307 306 307 309 306 306 306 306 306 306 306 307 307 307 306 306 305 303 305 315 318 322 320 318 316 315 315 315 316 312 312 312 316 314 310 307 305 307 308 308 309 311 311 310 310 310 309 306 305 305 306 306 307 308 307 306 305 304 304 304 304 304 304 303 302 302
311 308 306 306 307 308 308 308 306 306 306 308 309 308 309 308 308 308 308 307 307 306 306 306 308 308 308 306 305 304 304 305 305 306 306 307 309 309 307 306 314 316 320 319 316 314 314 313 313 312 315 314 313 316 314 309 306 303 305 307 309 309 309 308 309 309 310 308 306 305 306 306 304 303 303 303 304 305 305 304 304 304 304 302 302 302 302
308 309 308 308 308 309 309 309 309 307 307 307 308 309 310 309 308 307 307 306 306 308 307 306 306 306 306 306 305 304 304 305 305 306 305 305 306 308 310 313 315 317 318 317 314 313 313 313 313 315 317 317 316 316 312 307 305 304 305 306 307 308 308 308 307 307 306 307 305 304 305 306 304 302 302 302 302 302 303 303 303 303 303 302 302 301 300
308 307 307 308 308 309 308 307 307 306 307 309 309 310 309 307 308 309 308 307 307 307 308 306 306 306 305 305 305 305 305 306 306 306 304 303 303 304 310 318 316 316 316 318 314 313 312 312 315 317 316 315 314 314 308 305 304 304 304 304 307 307 307 305 305 305 305 305 306 306 305 305 304 302 302 303 305 302 302 302 302 302 302 301 300 300 300
306 307 308 308 308 308 309 311 311 309 309 307 306 307 308 308 308 308 308 308 307 307 306 307 306 306 306 306 306 306 306 307 307 308 307 306 304 305 308 312 313 317 317 318 314 313 311 314 312 313 313 313 314 310 305 304 303 302 302 303 305 307 305 304 305 305 304 305 305 305 304 304 303 302 301 301 301 302 304 304 303 301 301 301 300 299 299
307 308 307 308 309 309 308 308 309 308 307 307 305 305 308 308 308 308 308 308 308 307 307 307 307 308 308 308 307 305 304 304 305 307 308 308 310 311 312 314 316 317 317 315 314 313 312 312 313 312 312 312 312 307 305 303 302 301 302 304 306 306 306 304 305 305 305 305 306 306 308 307 303 302 303 303 301 301 301 301 299 300 301 302 302 303 302
310 309 308 307 307 308 309 307 307 305 306 305 306 306 307 308 307 308 308 307 307 308 308 308 308 310 310 309 308 308 308 306 303 303 307 307 308 308 308 307 311 314 316 315 313 313 315 315 314 312 311 312 310 307 305 304 302 303 302 304 304 303 303 303 303 304 304 305 305 303 304 303 301 301 301 301 301 300 299 300 299 300 300 300 300 300 300
307 307 308 309 308 307 307 307 307 306 307 308 307 308 308 308 308 308 307 308 307 306 305 306 308 308 307 310 310 307 309 310 307 304 307 308 307 306 307 311 314 315 313 310 311 310 310 309 309 309 310 310 308 307 306 306 306 306 306 305 305 304 303 303 302 302 303 303 302 302 302 303 303 302 302 302 302 301 302 301 301 301 300 301 302 302 301
307 307 308 307 307 308 308 306 306 308 310 309 309 309 309 308 305 305 307 305 305 306 305 305 305 306 306 306 308 308 308 309 310 310 310 309 309 308 309 309 310 313 314 309 309 308 310 311 311 310 310 308 307 306 307 307 307 307 306 307 305 304 305 304 307 306 303 303 303 303 303 302 302 303 303 302 302 303 302 302 301 303 306 303 300 299 299
310 308 307 307 307 308 308 310 309 310 309 308 308 310 309 307 305 306 305 305 304 304 303 304 305 305 305 305 306 306 307 307 308 310 308 309 309 310 311 310 310 312 311 309 308 308 307 306 307 310 309 308 307 306 305 306 306 306 307 305 305 304 304 304 303 304 304 304 303 303 302 302 302 303 302 301 302 301 302 302 301 301 300 299 299 299 299
308 309 308 308 307 307 309 309 311 312 311 311 308 309 308 306 305 305 305 307 303 302 303 302 301 304 304 304 305 305 306 307 308 307 309 309 308 307 309 310 309 309 308 308 307 307 307 308 310 310 309 307 306 306 308 308 306 306 307 309 308 305 305 304 304 304 305 304 303 302 303 302 302 300 300 300 301 300 300 300 299 299 299 298 298 299 297
Wind_Speed
11 11 9 8 8 2 3 8 15 17 20 21 17 17 16 13 8 8 6 12 10 6 6 5 5 5 5 7 7 6 5 3 1 3 7 7 8 7 2 3 3 6 9 8 7 3 3 2 4 0 1 3 6 7 8 9 11 10 8 9 10 10 9 7 8 6 5 6 6 5 5 7 5 5 9 8 7 7 6 6 6 6 4 4 6 5 4
9 10 9 8 6 3 3 9 17 19 22 20 19 19 19 19 13 12 12 12 12 8 6 5 6 4 4 3 3 4 3 2 2 3 1 4 3 2 1 3 5 6 6 6 9 13 7 2 3 6 5 5 4 7 6 7 9 8 8 9 8 8 7 6 5 5 4 3 1 0 1 3 9 6 6 7 8 7 7 7 5 6 5 4 5 6 6
6 9 9 8 3 5 8 18 15 15 18 19 17 15 12 14 13 12 14 10 8 3 4 6 6 6 3 4 5 2 3 3 1 1 2 1 1 1 2 1 3 7 8 8 4 5 8 11 10 10 10 10 8 5 5 5 4 5 6 7 6 4 5 6 5 5 5 4 3 4 2 5 5 2 4 8 6 5 5 5 5 5 7 6 5 4 6
6 7 7 6 7 10 15 15 15 17 18 15 13 12 9 10 9 8 9 5 4 2 2 2 4 7 11 12 13 10 7 6 5 4 4 5 4 0 1 1 3 4 5 3 2 2 5 1 5 8 10 8 7 8 6 4 5 8 11 14 13 12 8 6 5 4 3 1 3 3 3 3 1 2 3 6 5 3 3 5 5 3 5 5 3 2 3
3 11 6 8 2 8 11 9 10 15 18 13 14 13 13 10 6 8 7 3 3 6 3 4 6 7 9 9 10 11 12 8 4 2 3 1 1 5 2 0 1 2 1 2 2 4 4 3 3 3 7 10 8 5 2 3 9 14 14 14 10 5 2 0 1 3 4 2 1 2 2 3 1 1 2 4 6 7 6 4 6 8 8 9 7 5 7
3 10 9 10 3 8 1 6 9 14 15 16 16 12 13 11 7 5 4 5 5 6 7 7 6 8 7 7 7 6 5 7 5 2 2 0 2 4 4 3 1 1 4 3 4 4 3 3 2 4 4 5 5 5 7 12 12 9 7 8 9 6 5 5 4 3 3 2 2 1 1 1 0 1 2 4 5 5 5 4 4 5 7 8 7 7 8
2 5 7 4 5 1 6 8 8 11 16 18 18 14 14 11 9 9 8 8 6 7 7 4 4 6 9 10 12 13 12 8 6 5 4 3 5 5 5 8 8 6 2 2 2 4 3 4 2 3 5 4 4 6 7 11 11 11 6 5 8 6 3 5 4 4 2 1 2 1 1 0 1 1 1 3 6 5 5 5 5 5 4 5 6 8 8
2 2 2 1 3 5 4 5 9 8 8 12 13 14 14 12 11 7 8 8 8 8 8 7 2 6 8 9 12 11 11 9 6 8 10 11 9 9 6 6 7 7 6 4 3 4 2 5 3 3 4 3 5 3 5 8 6 6 6 8 8 5 5 6 5 4 2 1 1 0 1 2 2 2 1 3 6 5 5 5 5 5 5 5 5 6 6
0 2 3 6 2 1 11 6 7 6 6 4 7 6 7 11 9 10 6 8 10 10 9 8 7 2 7 10 11 12 12 10 7 7 9 10 12 9 5 5 7 4 4 4 4 5 4 5 6 5 3 3 2 2 1 4 5 6 7 8 8 6 5 3 4 1 2 2 3 3 3 4 4 3 3 3 5 4 6 5 6 6 5 5 5 6 7
2 0 5 0 3 3 3 3 6 6 9 8 10 7 5 10 10 10 8 8 9 10 9 10 10 5 9 10 8 9 10 9 10 9 8 7 7 9 7 8 9 8 6 2 2 2 6 7 4 4 4 6 7 6 6 5 4 5 5 4 3 5 3 4 3 1 3 7 6 5 5 5 2 2 3 6 6 4 5 6 6 4 5 7 7 7 7
2 2 1 1 3 2 5 8 9 8 8 7 5 8 6 6 8 8 9 10 8 8 9 9 9 8 7 6 5 6 7 8 8 6 7 6 6 6 5 5 8 9 9 8 6 7 10 11 11 9 6 7 9 8 7 7 7 7 3 8 5 4 4 3 3 4 6 8 6 6 5 2 2 3 6 7 6 4 3 4 7 6 6 8 8 7 7
3 3 3 2 2 1 3 8 8 7 6 7 3 1 2 6 9 5 7 9 9 6 8 5 7 7 5 2 2 4 6 7 7 7 6 6 4 3 5 7 8 8 9 12 14 14 12 10 9 11 9 9 9 8 8 8 9 8 7 4 9 5 6 4 2 3 4 2 2 1 3 4 4 3 4 8 8 7 5 5 7 6 6 7 9 7 6
4 8 2 3 1 2 8 7 9 11 7 2 7 3 0 3 4 7 6 8 8 6 5 6 4 4 4 4 5 5 5 7 8 6 5 6 6 6 6 7 7 8 10 11 11 10 7 9 10 9 9 8 8 7 7 9 9 6 5 7 6 10 7 2 2 5 4 4 4 4 6 6 6 5 4 8 9 8 7 7 8 8 8 8 9 8 6
2 1 5 2 3 1 7 3 12 10 2 5 4 2 2 1 4 5 8 7 7 6 5 3 4 4 6 6 5 5 6 4 2 3 4 7 8 5 5 8 6 9 10 11 11 11 10 10 9 7 8 9 7 6 6 8 6 5 7 8 8 9 6 7 7 5 7 6 6 6 6 7 8 7 6 6 7 8 8 9 9 8 8 8 8 8 7
1 1 3 2 1 3 7 3 7 12 5 2 1 1 4 4 5 6 6 7 5 5 4 4 3 4 7 5 3 4 3 3 3 4 4 5 7 8 9 11 10 10 11 11 10 9 8 8 6 5 7 8 6 5 7 7 6 7 8 8 9 10 8 8 7 7 7 8 5 6 6 7 8 8 6 9 9 9 9 9 9 9 8 8 9 8 7
1 2 2 1 1 3 7 8 6 2 5 1 3 3 4 4 5 4 3 5 5 5 4 4 5 4 4 4 4 3 3 2 3 3 3 3 5 7 9 11 10 11 11 10 9 8 7 5 5 5 6 6 6 7 7 5 7 7 8 8 9 9 8 7 8 9 9 8 8 7 7 7 8 8 8 8 8 8 8 8 9 9 8 8 8 8 8
2 2 3 2 3 5 7 9 7 6 6 6 5 5 4 3 4 4 3 4 5 5 4 4 3 3 4 3 3 3 2 3 2 3 4 4 4 4 5 8 8 8 9 9 9 8 6 5 3 4 4 5 5 5 3 4 4 6 7 8 8 8 7 7 8 7 6 6 6 6 6 6 6 7 7 7 8 6 8 8 7 8 7 6 7 7 7
6 6 2 5 3 6 7 7 7 7 6 5 5 4 4 4 3 4 4 3 5 4 3 3 4 4 3 4 3 3 3 2 2 2 3 4 4 4 4 5 5 6 6 6 6 8 7 5 5 4 3 3 5 4 3 4 4 5 5 5 6 7 7 8 9 9 10 10 11 10 9 7 6 5 5 4 5 6 6 6 6 6 6 6 6 6 6
4 2 4 3 5 5 6 9 8 8 7 4 3 5 3 4 5 5 5 4 5 4 4 3 3 2 1 3 4 4 3 4 3 3 3 3 2 3 4 5 6 6 6 6 5 4 6 4 4 3 4 4 3 4 4 3 3 4 7 6 6 6 7 8 8 8 9 7 8 9 9 9 8 8 8 7 7 7 5 4 6 5 5 4 5 5 5
3 4 3 3 6 8 7 5 5 7 6 4 3 3 5 4 4 4 4 5 4 2 4 3 3 3 2 3 4 3 3 3 2 3 4 4 4 3 2 1 3 5 6 6 5 6 5 4 6 7 6 6 7 5 4 3 4 4 4 4 6 6 7 7 7 9 9 13 11 8 7 8 8 8 8 8 8 7 5 5 4 4 4 4 4 4 5
3 4 2 3 8 7 7 7 6 5 4 4 3 3 5 4 3 4 4 4 3 2 5 3 3 3 2 1 1 3 2 3 2 3 3 3 3 3 4 4 5 6 5 5 5 7 5 3 3 4 6 6 5 6 5 4 4 5 4 5 7 6 4 4 7 9 8 7 7 9 9 9 8 6 5 6 7 7 6 2 3 3 6 5 4 4 3
3 2 2 3 4 3 3 4 3 4 4 4 4 3 4 4 3 3 5 4 5 4 3 4 2 3 3 1 0 3 2 2 3 3 3 4 5 4 4 4 4 5 4 4 5 6 4 3 3 3 4 4 4 4 4 5 6 7 5 4 5 6 5 5 8 9 8 8 8 9 9 9 9 8 11 11 8 6 5 9 12 12 8 6 4 4 7
3 3 3 5 7 5 3 4 4 6 4 3 3 3 4 4 4 4 3 4 4 5 4 4 3 2 2 4 1 2 3 4 3 3 3 3 3 4 4 4 4 4 4 4 5 5 3 2 3 4 4 4 5 5 5 4 6 5 4 4 4 6 6 7 10 8 7 7 7 7 8 9 8 8 6 8 13 12 9 7 10 13 13 14 12 8 9
5 5 4 3 3 4 4 4 4 5 4 3 3 4 5 4 3 3 3 2 4 3 4 3 4 2 2 4 3 3 3 4 4 3 4 3 3 3 3 3 3 3 4 5 5 4 5 4 3 3 4 4 4 4 4 4 5 6 5 5 5 5 5 7 11 8 7 8 7 7 7 7 8 9 8 8 6 9 10 9 10 11 12 12 12 12 11
5 4 4 3 5 6 5 7 6 4 3 3 2 3 4 3 3 1 1 2 2 4 3 4 3 3 1 1 3 3 3 3 3 5 5 4 4 2 3 3 3 3 4 4 4 5 4 4 4 5 5 5 5 5 4 4 5 6 5 5 6 6 6 6 7 9 8 7 7 7 7 8 7 7 8 9 8 5 5 8 9 10 10 10 11 10 10
6 5 5 4 3 3 7 7 5 4 3 3 2 3 4 4 1 1 1 0 2 3 3 2 4 4 1 1 1 2 3 5 4 4 4 4 4 4 3 3 3 3 3 3 3 3 3 3 3 3 3 3 4 4 4 4 4 3 4 5 6 6 6 7 8 7 7 7 6 6 5 6 6 6 6 7 8 8 7 4 5 7 8 7 8 10 8
4 4 6 4 4 5 4 4 4 3 5 4 4 4 2 0 3 1 4 3 3 3 4 3 4 3 2 2 1 3 2 4 5 4 4 4 4 3 3 3 3 3 3 2 2 2 3 3 3 3 2 3 3 4 4 5 4 3 3 3 3 8 13 8 7 7 6 6 6 5 5 4 2 4 7 7 8 8 7 8 6 6 5 1 1 1 3
4 2 1 3 6 6 5 5 4 5 5 4 4 2 1 4 2 4 4 4 4 4 4 4 4 4 3 2 2 1 1 4 6 4 4 4 3 3 3 3 3 3 3 1 1 1 2 2 2 2 2 3 3 3 3 4 4 4 4 3 3 4 3 6 6 7 7 7 5 5 3 3 4 4 4 5 6 5 4 6 7 7 5 4 3 4 7
4 3 3 7 7 6 5 5 5 5 4 4 2 2 3 4 5 4 5 4 4 3 4 4 3 3 3 3 3 1 0 1 3 4 4 3 4 5 4 4 3 2 1 2 2 3 2 2 2 2 0 1 3 3 2 1 2 3 3 3 4 4 4 2 4 5 6 6 6 5 3 3 3 3 3 2 2 2 3 8 7 6 6 5 4 3 3
5 4 4 5 6 5 6 4 4 4 5 4 3 3 4 4 3 3 4 4 4 4 4 4 4 4 4 4 3 2 1 0 1 1 1 2 3 3 4 5 4 3 3 3 4 3 2 2 2 3 2 1 2 3 3 1 1 1 3 3 4 4 4 3 3 4 4 5 5 7 4 3 5 3 2 2 2 1 2 4 8 8 8 5 5 4 5
5 4 6 4 5 5 4 5 4 4 4 4 3 4 3 5 3 3 3 4 4 4 4 5 4 4 4 4 4 4 1 2 1 2 2 2 3 5 6 6 7 7 7 6 4 4 4 4 3 2 1 0 0 1 2 2 2 1 3 2 3 5 7 7 5 3 3 4 4 5 4 4 6 5 3 1 2 4 2 4 6 6 7 6 5 4 4
6 5 7 4 3 3 2 4 3 3 4 5 2 2 5 3 3 3 2 2 3 2 4 5 4 4 4 4 5 4 3 1 1 0 2 2 3 3 5 5 6 5 4 4 5 5 4 4 4 4 3 1 1 0 1 1 2 0 3 3 2 2 4 7 4 3 3 2 1 1 1 2 2 3 3 3 2 0 2 2 6 8 7 7 6 4 3
5 4 4 5 4 3 2 4 3 3 5 4 2 4 4 4 4 4 4 4 3 2 2 3 2 4 4 4 4 4 5 2 3 3 2 2 2 3 3 4 5 5 5 4 4 5 5 5 4 4 4 3 1 1 2 1 1 2 1 1 2 3 2 3 4 3 3 3 2 1 1 2 2 3 3 1 1 1 1 2 7 9 7 7 6 4 4
7 4 4 6 6 6 4 3 3 1 1 4 4 3 2 2 2 4 5 4 4 3 1 2 2 2 2 3 3 4 4 5 3 3 4 3 3 3 4 4 4 4 2 2 3 4 5 4 4 5 4 3 2 2 2 1 0 1 1 2 1 3 2 1 1 2 2 2 1 1 1 1 2 3 4 3 2 2 3 3 5 8 7 6 5 3 3
5 5 4 5 5 6 5 4 3 4 5 5 6 4 4 4 4 4 4 4 4 2 3 3 3 2 3 4 3 3 4 3 3 4 1 3 3 3 2 3 2 3 3 4 3 3 4 4 5 6 5 3 3 2 2 3 2 1 0 2 0 3 2 1 0 1 0 2 1 1 1 1 3 3 4 5 4 4 4 3 5 8 6 6 4 4 4
5 5 4 5 5 4 4 5 7 6 6 4 4 4 5 4 4 4 4 3 3 3 3 3 2 2 3 3 3 3 3 3 4 4 6 4 3 2 2 2 1 3 3 3 4 4 4 4 9 10 6 4 3 3 3 3 3 3 1 1 2 2 3 2 1 1 1 1 1 2 2 3 3 5 6 5 4 5 5 4 3 6 7 6 5 5 5
4 5 6 6 5 4 5 5 5 4 4 3 4 4 3 3 2 2 2 2 2 2 3 3 3 3 3 4 4 4 4 4 3 4 5 5 2 3 4 4 4 4 3 5 6 5 4 3 7 14 8 6 5 4 3 7 1 2 3 2 2 2 2 1 1 3 2 1 2 2 0 2 4 4 4 5 5 6 3 2 2 4 7 6 5 5 4
5 7 7 5 4 5 6 5 4 1 3 3 2 1 2 1 1 2 3 3 4 3 2 3 3 3 3 3 3 3 4 4 4 4 4 4 0 2 1 3 5 4 6 7 2 1 1 4 11 8 5 6 6 5 6 9 6 5 4 4 2 2 4 2 0 1 2 3 2 3 2 4 3 4 4 5 5 5 3 0 3 3 5 6 5 4 5
5 6 6 7 6 5 4 5 6 5 4 3 1 1 2 2 2 1 3 3 1 2 2 3 3 3 4 4 4 4 4 4 4 3 3 4 4 2 3 7 7 8 9 6 3 4 5 5 6 7 5 5 6 6 8 9 9 5 6 3 2 1 3 5 5 5 4 3 4 2 4 5 5 6 5 4 5 5 5 4 3 3 5 5 5 6 7
6 5 5 6 4 4 3 5 4 3 2 2 1 1 1 1 1 1 1 2 3 2 3 4 3 4 3 4 4 5 5 6 6 6 4 4 4 5 6 3 6 7 7 7 5 6 9 12 8 6 6 6 6 6 4 8 7 3 3 3 3 4 5 5 6 5 4 2 1 4 4 4 4 4 4 3 3 4 4 5 6 6 5 5 7 7 7
6 4 5 6 4 6 7 7 5 2 1 1 1 1 1 0 0 0 1 0 2 2 3 2 2 3 3 4 4 4 4 5 5 4 5 5 5 5 4 6 4 4 6 6 5 5 6 6 6 7 7 6 5 6 6 9 6 4 5 3 2 2 3 4 5 4 4 4 4 4 3 3 3 3 3 3 3 5 4 5 5 5 6 8 7 7 7
4 4 5 7 7 5 5 4 4 3 2 1 0 0 1 2 2 1 1 1 1 1 1 2 3 3 2 3 4 4 5 4 4 4 4 5 6 7 6 7 2 1 5 6 6 4 4 6 7 7 8 7 6 11 10 7 6 5 4 3 2 1 0 1 2 4 3 5 6 4 1 2 1 0 3 4 6 6 5 5 4 6 7 7 7 6 7
7 7 9 7 5 5 4 4 4 3 1 2 1 1 1 1 1 2 1 0 1 2 3 4 3 3 2 2 3 4 5 4 5 5 5 5 4 4 5 8 6 5 8 6 6 6 7 6 6 5 8 8 8 15 14 8 6 5 2 1 1 1 1 3 3 3 3 3 5 5 2 1 4 4 4 5 6 6 6 6 6 6 6 7 7 7 7
8 5 6 5 5 4 4 3 2 2 3 5 4 3 2 1 1 2 3 3 2 1 3 3 3 3 3 3 3 4 5 4 4 3 5 6 7 6 4 3 4 4 9 5 5 5 6 6 6 9 14 14 11 15 9 6 6 7 6 6 5 4 4 4 5 5 4 3 5 5 4 4 4 5 5 5 6 6 6 6 6 6 6 6 7 7 7
7 6 6 5 5 4 4 3 2 5 4 2 0 1 1 2 2 2 3 2 2 2 2 3 3 4 4 4 5 4 5 5 5 4 5 5 6 6 3 2 1 1 4 5 3 2 1 2 4 11 12 14 13 14 7 7 8 8 6 5 6 6 5 6 5 6 5 5 2 4 5 4 5 5 6 6 6 7 7 7 6 6 7 7 6 6 6
7 5 4 4 4 4 3 2 3 4 4 3 2 1 3 1 2 2 2 2 3 2 3 4 4 4 4 5 4 5 4 5 4 4 5 5 6 6 6 7 4 4 8 9 4 5 7 10 6 4 6 11 16 11 8 7 7 8 7 5 5 5 5 6 6 6 6 6 5 5 5 6 6 6 7 6 6 6 7 7 6 6 6 6 6 7 7
5 4 4 3 3 4 6 4 3 2 3 2 1 2 2 3 1 1 1 2 3 3 3 4 5 6 6 4 5 6 5 5 5 5 4 4 4 6 6 8 6 7 7 5 5 4 6 8 10 15 13 11 12 6 8 7 7 7 7 6 6 5 6 7 7 6 6 6 6 6 5 7 6 7 7 7 7 7 7 6 6 6 6 6 6 6 7
2 2 7 6 5 5 6 6 4 3 0 3 2 1 0 1 1 2 2 2 3 3 3 4 3 3 4 4 4 4 5 4 5 6 4 4 4 3 4 5 3 5 2 3 5 8 8 6 3 12 14 12 8 2 2 4 5 6 6 6 4 5 6 6 6 6 6 6 6 6 6 7 7 7 7 6 6 6 7 6 6 6 7 6 6 6 5
5 5 4 5 7 6 4 3 3 0 1 2 1 1 0 1 2 2 2 1 2 3 5 3 2 2 3 3 4 4 5 3 3 5 3 4 3 4 3 4 5 3 2 3 3 4 7 7 2 4 10 13 9 6 4 5 4 1 4 5 4 5 7 6 7 6 7 7 7 7 7 6 6 6 6 7 6 5 5 5 4 5 5 3 4 4 3
4 4 2 3 4 3 3 4 2 1 1 2 1 1 0 1 2 1 1 3 3 2 3 3 3 2 3 5 4 5 5 6 4 3 2 3 3 3 2 2 0 1 3 4 3 3 6 9 10 12 9 5 6 5 5 6 4 3 1 1 2 3 4 6 6 8 8 7 7 6 5 6 6 5 5 6 6 6 5 5 5 6 8 6 4 4 3
4 5 5 6 6 5 3 2 2 1 2 2 1 1 1 2 1 0 3 3 3 3 3 4 3 4 5 5 6 5 6 6 7 9 5 3 1 3 0 2 3 3 3 4 4 4 4 3 4 8 10 8 6 5 5 7 6 4 4 2 1 4 6 5 5 6 7 7 7 7 5 3 4 5 5 4 5 5 6 5 4 4 6 7 7 7 7
5 5 5 5 6 5 3 2 1 1 2 0 2 1 0 0 0 0 3 5 4 3 4 4 4 4 4 5 5 6 5 7 6 7 7 7 3 2 1 2 2 4 3 4 4 4 4 4 5 7 9 7 6 7 8 10 9 8 6 3 2 3 5 6 6 6 7 8 8 7 7 6 7 7 7 6 6 6 6 7 6 5 5 6 6 6 6
Wind_Direction
344 331 308 302 304 317 310 5 22 40 48 57 57 47 34 57 73 102 46 57 65 33 23 17 27 12 13 14 349 18 59 74 84 125 138 161 182 197 174 53 32 36 31 359 354 322 172 125 131 168 1 145 151 159 160 162 167 166 154 156 168 171 173 165 170 169 160 178 185 190 189 192 211 184 179 181 184 180 185 170 174 177 187 164 166 177 178
315 309 314 296 232 4 324 55 58 57 56 50 47 54 55 58 69 58 56 60 58 36 6 342 314 339 56 69 32 30 38 62 15 347 25 138 151 144 64 57 37 35 34 67 45 359 339 84 90 100 81 327 153 150 158 155 159 161 143 149 159 165 167 167 158 154 130 80 63 100 81 205 207 189 182 193 184 185 184 182 176 174 177 178 171 178 181
315 307 306 300 337 286 48 39 55 69 68 58 53 57 67 78 74 74 47 16 43 4 353 360 341 347 21 37 64 41 342 16 35 313 324 352 80 94 65 45 64 57 30 9 53 78 355 355 49 63 57 28 5 55 81 96 107 136 127 127 118 91 67 51 61 80 105 115 99 95 85 39 8 299 170 182 191 194 187 179 182 180 181 185 190 189 183
315 313 301 292 274 67 40 33 21 60 60 56 49 56 48 63 72 82 97 78 25 314 357 18 12 16 21 26 21 22 13 0 353 342 1 346 341 12 116 85 59 98 120 127 329 167 137 51 61 82 92 85 51 18 13 61 83 68 63 56 49 57 45 41 59 62 35 47 136 140 108 74 64 15 104 125 145 144 172 195 202 180 181 182 195 205 209
294 292 279 274 293 61 34 12 7 70 76 81 72 64 56 56 67 74 67 87 351 20 31 31 11 40 43 47 44 20 9 11 40 27 338 343 20 345 0 11 102 239 148 88 95 358 31 71 43 64 112 127 138 147 79 24 64 69 73 80 76 49 64 169 170 144 139 162 212 204 126 136 144 75 65 110 119 104 83 80 99 100 94 86 85 73 57
266 308 334 348 41 70 213 267 68 74 80 75 69 54 55 52 50 75 63 71 58 49 34 40 20 40 47 48 46 52 20 336 354 48 111 164 126 98 52 12 294 294 17 40 60 52 11 342 110 128 44 42 47 58 70 70 70 45 65 108 131 162 196 210 198 195 166 139 195 193 88 84 79 46 70 95 88 88 99 78 73 87 92 106 117 109 106
306 328 346 13 59 243 275 9 40 88 91 81 75 60 46 40 44 62 54 36 48 48 35 53 76 77 81 56 37 21 12 1 347 352 6 52 101 68 77 60 42 48 153 165 331 57 17 326 302 51 57 62 65 54 65 95 120 143 185 121 112 125 172 245 232 216 209 130 211 267 97 80 4 31 13 77 85 86 88 82 71 74 91 97 102 113 112
306 341 300 80 188 210 281 358 16 9 111 106 87 58 29 21 28 33 54 39 36 33 26 24 98 116 114 73 44 29 19 14 10 8 4 4 55 82 59 68 57 53 24 37 100 128 194 289 341 27 78 50 59 53 68 92 98 97 100 111 126 145 186 226 235 226 157 123 323 336 148 172 184 184 170 101 106 106 94 86 78 76 61 66 77 97 112
12 302 13 101 205 28 11 357 346 332 15 44 96 90 28 4 13 17 45 43 34 25 11 4 0 137 107 53 33 24 25 28 38 23 24 32 49 49 53 69 87 70 47 19 19 345 347 330 350 24 37 70 71 23 70 95 95 98 100 102 106 130 224 231 240 209 108 133 186 192 200 198 203 190 143 105 104 112 104 90 81 70 82 73 76 85 80
133 82 112 1 40 41 297 293 254 331 20 92 114 107 67 354 4 7 30 46 39 23 10 5 350 348 66 37 27 14 18 21 28 24 17 25 58 75 59 68 69 62 56 31 115 59 52 48 11 319 336 61 62 49 50 79 91 89 113 109 148 164 181 210 232 152 182 217 207 201 205 195 155 125 104 109 98 84 85 89 80 73 78 78 70 73 74
3 312 154 45 110 224 243 294 332 354 359 347 107 79 43 332 340 27 16 33 30 36 18 8 3 47 58 56 34 19 30 22 23 29 21 24 55 77 88 82 86 82 75 48 31 48 47 38 26 22 25 54 64 62 56 54 50 45 51 145 121 130 223 191 118 160 202 226 225 213 209 104 110 126 130 117 115 113 172 136 114 110 102 95 89 77 77
44 17 63 83 55 172 305 328 342 348 330 341 326 87 17 329 337 24 39 30 19 21 34 11 38 42 72 57 48 31 48 39 26 26 12 17 18 69 79 63 77 79 74 71 51 37 32 33 43 50 42 50 50 48 53 58 57 51 36 66 151 152 245 236 91 66 23 327 319 251 156 119 76 64 127 128 142 169 177 106 110 101 97 91 90 81 76
18 75 81 92 76 20 344 335 357 331 304 331 58 108 63 290 337 9 35 47 14 18 47 26 62 51 88 90 85 60 46 39 24 14 35 54 50 48 71 90 95 83 73 72 75 69 49 36 35 39 58 62 56 46 48 53 52 46 55 57 83 147 207 271 77 98 78 56 37 43 81 91 95 92 103 127 145 150 129 110 107 101 100 98 90 85 73
25 52 94 132 120 47 330 352 15 343 19 66 123 181 230 346 22 41 40 42 29 6 51 68 68 90 86 83 77 63 54 70 55 8 11 36 31 35 72 65 67 82 86 84 80 73 59 48 41 41 58 63 63 60 61 64 53 48 55 59 65 54 73 97 93 102 93 63 59 66 80 102 100 92 84 88 96 95 97 105 109 105 98 92 91 85 72
59 56 106 82 33 348 345 339 33 8 62 129 46 85 51 39 29 21 50 48 37 20 22 42 107 90 89 82 65 67 71 46 20 20 21 35 54 68 84 86 82 80 81 78 76 80 87 88 84 69 71 81 85 86 82 74 68 62 65 65 67 72 63 68 84 98 102 104 91 78 77 80 93 94 91 96 96 99 104 104 101 98 94 98 97 91 84
119 60 74 168 200 74 28 61 86 42 68 107 63 80 91 53 21 14 18 61 50 18 47 54 44 57 88 107 104 105 103 75 25 21 9 22 66 69 81 90 94 95 90 87 85 81 79 80 81 77 71 69 70 70 74 83 77 67 67 68 71 70 66 68 84 87 88 88 81 75 75 75 77 88 91 93 95 101 105 109 112 108 110 111 107 108 107
77 135 151 210 184 125 103 97 97 85 56 54 68 78 69 54 45 352 35 65 64 38 25 60 70 77 73 78 106 106 98 76 43 24 12 26 55 70 73 77 87 92 102 107 107 101 92 78 70 95 110 106 96 85 88 108 106 100 91 81 77 71 67 59 56 64 77 85 88 82 81 81 82 82 88 91 96 103 112 113 113 115 123 125 122 125 125
78 44 73 160 111 100 100 95 96 91 80 66 68 69 63 34 38 23 17 50 94 73 49 71 51 48 54 103 112 120 102 85 73 40 15 18 22 32 59 75 76 89 90 93 104 106 101 89 74 69 89 114 110 116 117 107 120 116 104 103 104 99 93 82 79 77 71 64 59 51 47 46 54 45 48 68 101 119 115 112 113 121 131 133 133 132 133
94 79 338 87 114 113 92 100 104 103 96 83 82 81 74 60 26 15 1 359 102 108 85 88 94 78 88 92 72 81 87 73 51 51 34 18 36 82 93 97 95 81 82 84 83 91 96 99 98 89 78 61 87 123 111 100 81 105 133 132 120 115 111 110 98 82 74 66 59 54 48 47 48 50 49 45 36 33 31 87 125 130 124 124 123 128 134
120 174 193 87 78 90 94 87 85 83 80 71 49 82 86 70 42 1 358 346 32 88 111 118 113 100 38 89 119 110 114 108 87 54 32 29 40 39 53 60 88 93 90 89 78 61 56 49 52 49 48 56 44 36 46 54 54 60 86 120 134 139 132 130 125 111 99 86 78 60 49 47 44 45 52 54 51 38 25 19 49 101 116 121 125 136 136
71 87 102 99 79 71 77 80 75 83 103 108 73 45 80 71 64 1 340 355 351 39 117 115 122 132 150 106 104 123 111 129 109 79 60 30 39 40 38 46 78 95 100 92 76 74 74 59 59 68 76 71 61 56 44 35 45 59 55 72 82 89 105 121 111 101 98 96 92 92 82 70 62 42 22 29 59 60 32 29 18 56 95 76 59 47 68
143 158 171 135 135 142 106 101 121 117 78 69 65 57 78 85 59 19 11 351 358 3 64 124 133 120 137 113 93 130 134 97 103 96 76 46 39 30 26 43 57 66 71 85 87 84 65 45 41 56 65 61 52 50 54 43 55 65 55 69 80 74 77 74 101 112 112 110 110 106 100 96 87 68 49 47 25 58 53 33 50 51 68 80 70 103 92
164 154 126 105 104 96 130 127 91 77 70 64 85 77 64 59 58 28 17 12 349 357 22 54 96 152 139 143 136 134 149 152 136 132 120 102 72 53 30 37 37 52 50 50 61 73 77 50 49 42 40 35 35 30 35 58 70 69 66 67 89 86 72 83 108 117 115 115 114 109 111 109 104 95 72 37 31 26 26 52 76 78 73 72 72 77 103
108 125 108 75 105 134 120 100 99 92 69 57 52 85 81 58 49 32 356 17 349 344 9 44 56 80 107 119 166 170 146 145 135 127 110 101 93 83 62 56 43 43 46 43 40 29 20 23 45 45 51 41 34 25 19 40 69 80 77 79 76 76 77 94 110 115 119 123 125 126 124 124 120 125 113 97 54 19 11 33 64 80 86 85 83 81 86
146 126 111 108 107 115 125 112 105 103 98 108 107 87 96 73 63 341 12 359 349 358 28 13 49 72 133 153 162 160 139 132 145 147 134 126 121 109 102 98 82 58 46 46 38 30 29 38 40 35 32 20 18 14 4 14 63 79 74 80 85 87 71 79 104 122 127 130 135 136 144 139 140 141 130 129 121 101 24 17 34 53 64 79 90 97 97
120 121 111 104 117 118 110 99 92 129 172 177 97 77 81 111 142 250 32 350 67 19 5 36 44 4 89 122 67 100 132 134 135 132 133 141 136 129 141 120 93 75 69 59 49 32 39 40 50 46 34 11 10 5 10 6 20 57 91 102 109 102 105 110 105 104 112 120 122 131 139 149 158 155 148 141 138 139 137 121 65 43 35 43 72 76 62
98 125 132 151 128 78 65 112 150 116 77 65 82 82 26 329 127 129 109 47 39 43 356 29 55 26 73 127 126 114 97 134 145 149 145 150 161 155 148 126 111 101 93 75 46 41 48 40 32 49 39 16 21 11 3 2 6 24 22 33 66 109 113 110 107 102 95 92 99 95 90 98 103 150 156 159 152 157 156 145 134 132 135 150 232 150 136
126 156 131 175 162 142 140 123 114 94 86 77 72 65 38 352 70 93 69 48 43 45 31 22 23 17 21 101 130 121 169 158 169 167 157 171 164 153 145 137 133 141 130 122 93 55 81 66 67 47 2 348 15 38 21 10 13 23 35 26 30 27 50 90 91 99 99 95 80 75 70 77 100 90 107 144 163 169 161 134 138 136 135 136 134 120 105
119 102 75 82 104 124 119 110 115 129 138 127 144 183 69 37 22 41 63 57 21 35 32 8 5 32 18 27 75 77 68 202 180 188 186 174 163 163 158 147 161 175 176 174 176 177 176 161 162 130 253 334 340 4 357 34 10 52 58 57 47 35 20 43 99 100 103 104 95 74 59 85 92 79 54 52 45 58 139 149 149 142 125 126 106 66 58
115 98 93 109 120 131 130 145 160 169 152 146 146 109 121 99 51 35 54 41 24 35 12 357 359 21 34 31 33 35 67 114 196 211 224 178 151 162 176 160 166 192 213 208 206 201 190 216 197 179 195 7 21 351 342 7 242 131 121 113 96 77 41 29 89 106 113 109 113 99 96 72 38 41 63 39 24 351 1 122 148 142 147 135 121 126 118
129 152 146 155 152 159 180 175 145 143 161 175 161 139 120 95 94 73 53 35 37 28 8 4 349 26 32 20 4 347 5 121 214 243 238 219 197 171 174 165 175 198 208 210 199 190 185 192 172 166 176 187 52 0 351 2 332 142 108 107 112 110 97 70 65 95 120 126 142 148 163 162 151 122 102 25 7 340 47 72 133 135 125 132 125 115 114
151 162 134 128 136 199 180 106 126 124 107 99 115 127 110 106 87 90 91 81 50 36 25 349 352 27 18 3 346 330 319 181 150 285 290 243 206 178 185 190 197 198 202 202 195 184 176 169 172 176 172 202 194 254 275 1 341 121 159 154 142 156 130 127 121 103 106 104 105 88 125 128 113 130 120 115 110 351 350 49 90 98 99 102 103 110 126
146 163 155 160 173 199 222 160 162 186 181 180 161 119 122 131 164 191 166 149 148 87 50 317 359 25 3 339 323 331 329 314 184 214 252 266 208 194 208 201 201 203 205 205 195 181 175 183 192 163 167 184 198 265 273 222 32 10 9 82 179 187 168 153 140 149 146 137 141 137 134 141 143 146 134 129 167 102 57 68 111 113 116 117 128 147 133
159 172 177 174 170 187 207 155 145 305 16 119 131 135 121 85 76 76 74 63 56 39 3 337 353 351 324 313 323 328 323 326 303 218 224 232 240 219 198 207 206 205 201 171 174 182 185 192 171 160 165 165 190 222 264 246 118 355 8 4 23 109 102 67 88 136 156 125 127 207 174 161 183 172 171 181 147 97 84 47 105 118 117 116 128 145 136
144 125 120 139 144 121 123 126 123 96 74 43 20 36 62 57 52 41 36 50 41 32 11 358 333 312 290 282 282 289 298 318 345 348 276 219 235 223 194 185 195 169 176 192 208 211 203 189 163 162 156 163 172 205 249 240 170 172 306 353 334 125 120 85 26 358 94 171 182 216 287 284 251 203 156 140 120 98 72 63 79 117 122 130 142 151 154
159 139 123 90 64 79 89 79 73 67 59 53 55 48 32 35 40 40 36 32 27 334 291 272 275 312 323 328 325 322 329 334 330 319 318 284 223 181 121 88 349 286 262 254 222 210 214 200 172 163 153 167 179 221 244 224 172 181 220 65 38 110 89 68 18 306 297 351 302 227 199 234 161 113 109 108 101 93 82 71 71 111 135 136 134 104 88
148 127 125 115 125 122 98 81 77 77 77 62 51 35 46 32 26 22 15 358 318 330 348 8 359 356 342 346 342 333 325 314 295 282 273 278 199 177 163 171 191 215 227 240 235 214 211 211 193 182 165 167 175 196 211 212 110 112 77 58 42 138 117 126 254 279 262 265 306 287 188 76 110 110 113 116 110 96 86 85 88 91 119 130 121 125 115
124 115 118 119 137 131 123 130 132 118 120 115 130 164 249 298 55 56 47 353 313 305 18 18 357 358 329 311 309 303 300 302 305 311 315 330 13 178 211 207 214 213 221 237 196 135 222 241 225 207 178 174 171 176 197 200 124 133 130 211 233 159 160 163 283 284 280 285 288 261 159 142 126 100 86 85 93 98 76 130 119 77 75 118 133 131 125
122 116 101 92 78 71 83 85 74 76 83 85 75 44 80 75 81 290 275 265 320 9 335 312 325 319 308 304 308 314 309 303 294 291 316 312 328 334 201 211 216 204 216 216 163 185 204 199 189 187 189 183 178 174 186 165 135 150 167 209 249 237 128 165 211 215 237 270 254 222 117 110 109 104 97 92 80 85 87 76 113 122 106 125 122 104 94
126 132 136 122 124 136 117 108 106 94 96 98 99 121 96 290 249 133 66 331 319 15 41 24 20 358 347 359 351 336 325 326 326 333 328 341 340 319 304 264 227 228 225 220 200 188 194 195 191 177 176 181 166 161 151 147 147 150 167 193 235 222 202 204 197 186 170 175 105 108 118 115 111 115 112 109 97 102 111 99 83 85 91 86 83 91 92
151 161 138 148 130 104 109 106 107 122 151 128 163 205 152 179 2 334 275 55 51 48 36 34 10 341 334 332 331 314 315 313 321 324 332 332 319 302 287 284 278 249 213 202 199 199 193 195 192 179 159 167 168 160 159 156 151 162 179 196 248 251 239 201 166 166 151 126 112 100 97 111 92 91 143 153 119 126 118 100 93 82 90 103 101 95 99
138 122 82 80 92 107 108 123 135 112 94 100 326 314 42 50 58 39 24 94 91 47 350 311 298 290 308 318 319 319 315 311 316 310 312 304 292 281 271 264 225 180 178 189 186 175 172 191 194 179 173 170 166 165 154 143 164 185 184 190 211 208 100 36 110 121 103 128 120 103 78 47 94 132 169 137 132 131 128 116 104 86 94 105 106 106 97
85 97 108 115 120 120 128 107 101 109 182 246 180 120 107 48 334 302 294 20 315 248 247 245 251 269 275 281 296 295 294 299 300 304 296 286 286 307 290 280 246 221 186 168 167 174 183 189 186 182 182 177 171 169 160 166 177 175 159 232 241 224 177 128 118 108 84 98 125 110 95 107 136 121 101 117 118 118 122 118 115 112 106 103 103 101 99
122 113 111 120 126 131 126 119 91 84 72 53 43 29 20 33 331 305 298 287 298 0 9 350 335 321 301 294 287 281 274 273 275 290 304 304 308 300 294 306 314 224 197 177 172 185 192 194 194 198 195 192 181 170 160 161 150 162 183 197 207 210 203 172 151 150 157 150 132 128 128 119 106 112 106 98 100 96 92 96 100 105 101 101 103 111 116
119 130 139 139 130 120 106 103 101 94 113 156 100 29 35 21 16 41 33 25 15 338 331 316 307 297 287 273 264 262 264 262 264 273 280 282 277 279 293 335 2 191 223 205 185 140 9 337 273 207 190 185 169 161 154 159 170 179 195 200 199 199 189 166 155 151 145 133 127 126 136 122 125 121 112 111 107 103 101 106 109 106 106 111 118 121 122
124 126 129 125 116 123 121 113 117 119 110 84 47 297 265 302 53 18 333 335 344 321 301 286 280 282 281 281 275 272 271 269 262 249 244 244 256 267 272 282 261 221 222 213 207 172 169 175 176 226 214 170 167 165 167 169 168 177 196 209 214 193 167 159 153 144 144 153 158 133 120 113 116 105 94 93 96 99 104 109 108 112 111 106 105 116 124
137 148 142 129 104 105 104 102 100 90 81 48 5 356 30 56 46 353 350 330 298 296 287 285 280 274 274 274 277 274 277 276 273 263 268 273 277 277 272 273 280 259 240 226 228 208 163 180 186 178 183 186 180 174 166 168 175 187 194 206 212 182 171 158 157 154 149 145 137 134 122 103 101 104 104 105 102 101 108 116 123 117 118 127 136 138 146
148 156 140 143 135 110 84 75 63 43 52 209 184 185 40 33 332 307 295 292 295 292 293 282 293 346 338 321 310 300 266 244 274 277 258 266 272 297 332 327 3 346 316 31 17 346 354 345 232 173 170 167 163 169 213 197 192 200 202 205 189 161 138 134 133 135 135 122 118 111 110 119 118 112 118 121 123 129 131 122 130 142 144 150 166 164 157
70 50 62 85 87 91 98 90 87 223 209 111 121 150 197 260 269 260 252 298 336 335 308 320 2 10 329 317 307 307 306 280 237 267 272 269 273 279 281 291 295 266 132 118 142 136 163 176 184 206 179 166 168 171 169 188 195 239 260 219 200 176 140 140 146 135 119 123 124 131 126 129 133 134 135 141 144 146 141 146 129 113 126 123 105 105 128
135 120 111 98 98 97 105 117 146 149 119 103 82 294 202 242 267 279 88 65 343 334 340 353 333 334 321 301 307 315 322 315 298 275 300 303 302 288 296 321 46 122 132 157 182 185 184 181 170 174 182 181 174 144 109 107 115 200 259 15 112 126 126 138 160 145 139 137 138 135 136 130 129 147 142 147 149 155 150 128 131 134 122 108 112 117 100
82 90 98 108 110 111 109 117 124 126 97 81 262 212 184 243 250 122 95 63 17 5 356 333 333 348 349 357 354 343 339 337 341 334 319 288 288 297 251 144 170 184 183 186 188 174 168 175 186 183 183 184 180 160 123 124 134 103 63 20 131 120 112 115 134 141 138 134 136 137 140 138 130 130 138 132 114 115 117 122 117 100 91 87 91 88 87
113 117 115 106 115 113 124 132 98 71 92 68 295 265 126 91 47 26 94 70 59 20 349 348 340 1 17 1 0 344 346 346 346 336 329 319 286 278 279 271 229 204 195 192 185 160 163 175 182 187 183 171 155 135 125 123 126 123 91 15 345 58 93 96 97 110 126 129 129 127 124 119 113 108 103 103 94 91 93 97 101 104 100 99 99 107 118